Temperature
23 20 19 20 20 20 21 22 21 23 24 24 23 22 21 21 19 18 17 17 16 17 17 18 18 18 19 18 18 18 17 17 16 16 16 15 15 15 15 14 14 14 14 14
20 19 20 21 22 22 22 21 21 22 24 24 22 22 21 20 19 18 17 16 15 15 16 17 17 17 17 17 17 17 16 15 15 15 15 15 14 14 14 13 13 13 13 13
19 20 22 22 22 22 22 21 21 22 23 23 23 22 21 19 18 17 16 15 15 15 15 15 16 16 16 15 15 15 15 15 14 14 14 14 14 13 13 13 13 12 12 11
20 21 22 22 22 22 22 23 23 23 23 21 22 19 20 18 17 16 15 15 15 14 14 14 14 14 14 14 14 14 14 14 14 14 14 14 14 13 13 12 12 11 11 10
20 22 22 22 23 23 22 24 23 23 23 21 20 18 18 17 16 15 15 14 14 14 13 13 13 13 13 13 13 13 13 13 13 13 13 13 13 12 11 11 10 10 9 9
21 22 22 22 24 24 24 24 23 20 18 19 20 19 18 17 16 15 15 14 13 13 13 12 13 13 12 12 13 12 13 13 12 12 12 12 11 11 10 10 9 9 8 7
21 22 23 24 23 23 23 21 19 19 17 18 19 19 18 18 18 16 15 14 13 12 12 12 12 12 12 12 12 12 12 12 11 11 11 10 10 9 9 8 7 7 6 6
19 20 22 23 23 22 21 19 18 18 17 17 19 18 17 18 17 16 15 14 13 12 12 12 12 12 12 12 12 12 11 11 10 10 10 9 8 8 7 7 6 6 5 5
19 20 23 23 24 23 22 20 19 18 17 17 17 18 17 17 16 15 14 13 13 12 12 12 12 12 12 11 11 11 11 10 10 9 8 8 7 7 6 6 5 5 4 4
19 19 21 23 24 24 22 20 16 16 17 17 17 16 16 15 15 15 14 13 13 12 12 12 12 12 11 11 11 10 10 9 9 8 8 7 6 6 5 5 4 4 4 4
20 19 20 21 22 22 23 22 19 16 17 17 16 16 18 17 16 15 14 13 12 12 12 12 12 11 11 10 10 10 9 9 8 7 7 6 5 5 4 4 4 4 3 3
18 16 17 19 21 22 22 21 20 19 18 16 16 16 18 17 16 15 14 13 12 12 12 12 11 11 10 10 9 9 9 8 7 6 6 5 4 4 4 4 4 3 3 3
18 16 16 17 18 19 20 21 20 18 17 15 16 16 16 16 15 14 14 13 12 12 11 11 11 10 10 10 9 9 8 7 6 5 5 4 4 4 4 4 3 3 3 3
17 15 15 16 16 18 18 19 19 18 16 16 17 17 15 14 13 13 13 12 11 11 11 11 10 10 10 9 9 8 8 7 6 5 4 4 4 4 4 3 3 3 3 3
13 14 15 15 17 18 18 19 19 18 17 16 17 16 14 13 13 12 11 11 10 10 10 10 10 9 9 9 9 8 7 6 5 4 4 4 4 4 4 4 3 3 3 3
11 12 13 14 16 17 18 18 19 19 18 17 16 14 13 12 12 11 11 10 9 9 9 9 9 9 9 8 8 7 6 5 5 4 4 4 4 4 4 4 4 4 3 3
11 11 11 11 14 15 15 17 18 18 18 16 15 13 12 12 12 11 10 10 9 8 8 9 9 9 8 8 7 6 5 5 5 4 4 4 4 4 4 4 4 4 3 3
11 11 10 10 13 13 14 16 17 17 17 16 14 12 13 12 11 10 10 9 8 8 8 8 8 8 7 6 5 5 5 5 5 5 5 5 5 5 5 4 4 4 4 3
10 10 9 10 11 12 14 15 14 15 15 14 13 12 11 10 9 8 9 9 8 8 8 8 7 7 6 5 5 5 5 5 5 5 5 5 5 5 5 5 5 4 4 3
9 9 9 9 10 10 12 13 13 14 13 14 13 11 10 10 8 6 7 8 8 8 7 7 6 6 5 5 5 5 5 5 5 5 5 5 5 5 5 5 5 4 3 2
8 7 8 8 8 10 12 12 14 13 12 12 12 11 10 9 8 6 7 8 7 7 7 6 6 5 5 5 5 5 5 5 5 5 5 5 6 5 5 5 4 4 3 2
7 7 7 7 8 9 11 11 11 10 11 11 10 9 8 7 7 7 7 7 7 7 6 6 5 5 5 5 5 5 5 5 5 5 5 5 5 5 5 4 4 3 2 2
7 7 7 7 7 9 10 10 11 11 10 9 8 8 7 7 7 7 7 7 7 6 6 5 5 5 5 5 5 5 5 5 5 5 5 5 5 4 4 4 3 2 1 0
7 7 6 6 8 9 9 9 9 10 9 8 8 8 8 8 7 7 7 7 6 6 5 5 5 6 6 6 6 5 5 5 5 5 5 5 4 4 3 3 2 1 -0 -1
7 7 6 7 8 8 9 9 8 8 9 8 8 9 9 9 8 7 6 6 5 5 5 6 6 6 6 6 6 6 6 5 5 5 5 4 4 3 2 1 0 -1 -2 -3
7 7 6 7 7 8 8 9 9 9 8 8 8 8 8 8 7 6 6 5 5 5 6 6 6 6 6 6 6 6 6 5 5 4 4 3 3 2 1 -1 -1 -2 -2 -3
Wind_Speed
4 4 7 9 8 8 7 8 12 15 12 6 7 7 9 14 22 21 19 19 18 16 13 12 11 10 10 10 11 10 10 8 7 6 5 5 6 5 6 8 13 14 14 13
1 8 13 10 9 9 9 11 14 14 9 1 2 4 6 13 18 21 22 21 21 19 16 13 11 9 10 10 10 11 11 10 9 6 5 5 5 5 4 6 10 13 14 13
11 10 9 10 11 12 12 11 13 12 8 3 5 5 4 8 14 17 18 20 20 21 19 16 13 11 11 11 11 11 11 11 11 9 7 6 5 4 5 6 6 9 13 14
9 11 11 11 11 11 13 15 13 11 6 4 6 5 4 7 12 15 17 17 18 18 18 17 15 14 13 13 12 12 12 12 10 10 10 10 7 5 5 4 5 7 12 13
9 8 11 13 16 13 13 16 12 10 6 4 0 6 6 9 11 13 15 16 16 17 18 18 17 16 15 14 12 11 11 11 10 10 10 9 8 5 4 5 6 7 7 10
12 10 9 11 14 13 13 10 3 3 4 4 7 7 8 11 17 20 18 18 18 18 18 18 17 16 14 12 11 9 10 9 8 9 9 9 8 7 6 6 6 5 4 5
12 13 12 11 12 13 7 5 1 4 4 8 7 5 8 11 18 23 24 21 19 19 19 18 17 14 12 11 9 8 9 7 7 8 8 8 7 7 6 4 5 5 4 4
11 12 12 10 13 13 9 10 10 9 8 7 3 4 7 5 18 19 20 20 20 19 18 18 16 14 12 11 9 8 8 7 7 8 7 7 7 5 4 3 3 3 3 3
11 12 12 10 9 10 8 8 11 10 7 4 3 1 5 10 19 21 22 22 21 20 19 19 16 13 12 10 9 8 9 8 7 7 7 6 5 4 3 3 2 2 3 4
7 8 10 9 7 5 10 9 7 7 8 6 5 6 10 17 20 20 20 19 19 18 18 17 14 11 10 9 8 8 8 8 6 6 5 4 3 2 2 2 4 4 5 4
2 5 8 4 4 7 4 3 5 6 6 8 7 9 11 25 25 23 19 18 19 18 17 14 12 12 11 9 8 8 7 7 6 5 4 3 1 2 3 3 4 5 4 5
5 3 3 7 6 5 7 8 7 5 7 7 6 9 6 22 18 18 19 19 18 17 14 14 14 12 11 9 7 7 7 6 5 3 2 1 1 3 4 5 5 5 5 5
5 4 4 9 8 8 4 4 2 3 4 5 4 8 5 13 15 16 18 19 18 17 16 15 13 12 10 9 8 7 6 5 4 3 2 2 3 4 5 5 5 4 5 5
4 2 6 7 8 5 7 7 5 2 2 3 4 1 4 10 14 14 15 16 16 17 16 15 12 10 9 9 8 7 5 4 3 3 3 4 4 4 4 4 4 5 5 6
6 2 4 7 8 8 9 9 5 3 4 6 5 6 9 13 13 13 14 16 17 16 15 14 12 10 9 8 7 5 3 3 3 4 5 5 5 5 4 5 5 6 6 6
7 4 7 6 5 8 11 11 7 5 4 6 8 5 11 17 14 14 14 17 16 14 13 13 12 10 9 7 5 4 4 5 4 6 6 5 4 4 5 6 6 6 6 6
3 4 5 5 7 8 8 8 7 6 6 9 9 10 20 23 24 23 20 19 18 16 14 12 10 9 7 6 4 2 4 5 5 5 5 3 3 4 6 6 6 6 6 5
6 3 3 4 3 8 9 5 5 7 7 9 9 18 25 22 15 12 15 18 18 16 14 11 9 8 5 4 2 2 5 5 4 3 4 5 6 7 7 7 7 6 4 4
5 6 5 4 5 8 7 3 3 3 5 6 16 21 19 23 17 10 11 16 17 14 11 9 8 7 5 3 1 3 5 3 3 4 6 8 8 8 8 8 8 6 3 3
6 3 4 4 4 7 7 4 5 4 5 4 19 27 27 21 12 9 12 17 15 12 9 9 8 6 5 1 1 3 4 4 5 7 8 9 8 8 9 9 7 2 2 5
6 5 1 5 7 9 7 4 2 5 8 6 15 20 14 7 10 16 16 14 13 10 9 9 8 6 3 3 1 3 5 6 7 7 7 8 8 8 6 5 4 6 8 8
3 4 4 3 6 9 4 2 7 7 6 14 14 14 19 23 23 18 16 14 11 10 10 8 6 3 4 4 3 4 6 7 7 6 7 8 7 6 7 9 10 10 8 8
4 5 4 5 8 8 7 5 4 10 16 17 17 21 24 23 21 17 13 12 10 9 8 5 5 4 5 5 4 4 6 5 5 7 8 7 7 9 9 10 9 8 7 6
4 4 5 8 13 12 7 5 11 17 21 21 23 22 22 21 18 16 13 10 8 7 5 3 4 3 3 3 2 3 2 4 6 7 7 6 7 9 8 7 7 6 5 5
6 4 5 7 7 3 7 15 20 23 23 22 20 19 19 20 18 15 11 9 7 5 3 3 3 1 2 1 1 1 3 6 7 7 7 7 7 7 6 5 4 4 2 3
4 4 3 3 4 2 8 14 21 23 21 21 21 17 15 17 15 12 9 7 6 5 3 2 1 1 1 1 2 3 5 7 7 7 7 7 6 5 4 4 3 2 2 5
Wind_Direction
221 154 225 232 223 216 245 275 283 284 289 308 265 198 152 129 119 122 121 119 117 114 115 112 107 101 89 71 67 64 62 51 58 62 61 62 58 48 48 52 47 41 35 27
299 242 230 224 237 244 253 268 276 286 290 254 90 95 127 132 133 134 132 129 128 126 122 118 110 97 86 82 76 70 65 60 59 66 69 79 85 63 56 44 39 35 32 26
212 237 231 223 239 248 257 246 252 257 285 24 102 40 65 90 115 121 125 129 132 133 132 128 120 107 98 89 82 80 72 69 67 69 71 65 55 43 30 27 25 23 27 27
232 241 244 244 240 227 252 251 240 245 249 253 149 171 202 129 122 130 134 135 134 133 131 127 121 111 103 97 91 85 79 74 69 69 72 71 68 55 30 24 24 17 23 26
229 226 225 238 246 238 239 255 243 234 229 260 224 159 218 148 146 153 146 140 135 133 130 126 121 115 109 103 96 90 84 77 73 71 72 71 64 54 36 29 22 14 11 20
234 243 230 233 253 246 244 244 259 63 84 267 249 191 222 188 177 162 152 144 139 135 129 122 118 115 111 106 100 96 89 81 75 74 72 75 72 62 48 29 15 5 357 358
249 258 256 250 265 277 254 190 295 305 317 254 257 227 238 208 171 159 153 148 144 139 135 131 127 124 122 117 113 108 102 91 82 79 74 74 76 70 56 32 20 12 356 341
220 253 249 244 232 241 246 175 183 207 230 264 319 244 292 165 144 146 147 146 145 143 140 136 135 134 133 128 123 116 106 95 84 80 76 70 68 63 45 32 23 358 324 300
200 233 242 242 238 210 223 204 192 172 185 195 235 138 40 110 139 151 154 152 150 147 143 139 139 139 133 126 121 117 108 95 86 87 88 72 66 60 38 9 343 312 301 305
195 234 259 256 257 265 199 185 121 142 174 222 225 202 186 173 168 165 161 157 150 145 143 142 142 134 122 117 113 108 107 105 103 99 94 90 72 49 6 332 317 308 304 306
109 202 290 319 221 251 269 197 151 150 167 181 220 245 206 186 178 170 162 154 148 146 146 140 131 122 115 110 112 111 108 106 104 107 104 92 42 333 320 309 301 301 299 306
7 101 291 273 257 237 234 229 188 189 230 185 191 252 247 183 172 160 153 150 146 142 136 128 121 116 113 112 110 104 100 95 100 113 109 106 303 314 319 313 308 307 303 302
349 72 14 340 336 4 14 345 302 176 163 172 199 277 354 148 146 151 149 146 142 133 127 121 117 117 116 111 104 97 90 83 72 64 38 326 313 317 318 311 309 307 302 305
36 142 176 214 241 282 305 312 344 47 185 198 192 214 81 136 143 142 138 135 132 130 126 121 116 113 108 103 99 94 80 63 39 17 354 324 309 307 306 307 308 300 299 302
37 356 284 250 255 268 276 278 283 286 201 185 190 165 167 159 147 136 129 128 127 127 125 123 121 116 107 97 89 80 53 13 353 334 318 306 304 307 308 312 306 300 305 309
10 1 355 325 321 308 282 275 266 248 210 181 150 160 153 134 126 133 136 132 129 132 132 128 122 115 108 103 91 61 11 334 319 305 297 302 307 309 301 294 296 304 308 309
310 19 360 290 308 327 273 253 250 235 209 177 185 176 152 148 154 153 148 144 144 144 139 131 124 120 117 109 96 47 323 310 306 293 291 284 273 286 286 290 296 294 294 297
208 218 233 262 322 250 249 285 256 229 225 190 170 160 161 152 138 135 142 142 139 134 130 127 127 123 122 119 87 334 313 299 281 271 276 268 267 274 278 285 283 278 276 289
207 192 207 223 242 266 275 322 342 253 262 181 151 144 132 119 98 86 112 122 124 125 127 130 134 133 128 113 36 345 329 299 286 286 280 273 270 272 276 278 275 270 273 328
40 128 182 217 227 247 242 270 293 161 242 182 149 146 145 134 133 143 127 119 116 115 119 124 125 116 111 127 352 347 320 306 294 284 282 285 288 287 284 278 278 297 36 41
350 359 302 221 233 256 247 262 31 176 228 148 150 149 145 121 128 134 127 119 118 117 119 117 113 118 160 220 265 302 303 292 285 295 309 319 319 313 307 326 20 55 63 50
282 298 289 265 236 253 276 212 179 192 121 108 107 106 106 109 117 124 124 124 121 113 109 110 118 166 228 244 246 280 291 287 305 330 343 342 347 5 40 63 65 63 57 40
237 223 250 249 251 279 286 252 183 133 116 114 115 117 119 121 124 126 125 122 113 109 116 127 159 210 250 256 240 267 288 309 343 358 353 352 18 43 64 76 72 62 50 36
264 206 235 265 271 275 262 148 120 114 111 115 120 124 125 123 124 122 118 114 113 117 130 149 173 215 262 277 241 228 307 21 32 16 2 17 52 65 66 74 77 75 56 34
248 229 252 263 289 18 104 124 119 113 115 119 122 124 123 123 123 123 124 125 124 128 142 151 158 185 254 235 179 103 65 57 40 23 22 42 71 87 76 71 76 93 94 65
236 215 249 289 310 107 112 117 116 113 116 118 117 114 117 122 124 126 126 126 126 130 133 121 92 45 12 75 58 55 73 72 59 42 42 56 74 81 74 64 28 356 334 344
Height
1499 1507 1512 1509 1508 1510 1511 1513 1514 1503 1493 1496 1496 1495 1493 1492 1492 1497 1502 1504 1508 1512 1516 1520 1523 1526 1528 1530 1531 1532 1533 1535 1536 1538 1540 1541 1541 1542 1542 1542 1542 1541 1540 1539
1504 1508 1501 1501 1502 1505 1508 1513 1512 1502 1492 1494 1498 1498 1495 1492 1492 1495 1499 1503 1507 1511 1516 1519 1523 1526 1528 1529 1530 1531 1533 1534 1536 1538 1539 1540 1541 1541 1541 1541 1540 1538 1537 1535
1506 1500 1495 1499 1502 1504 1505 1510 1508 1505 1495 1493 1499 1507 1504 1502 1500 1502 1503 1504 1507 1510 1514 1518 1523 1526 1528 1529 1530 1532 1533 1535 1536 1537 1539 1539 1540 1540 1540 1538 1537 1535 1534 1532
1498 1492 1493 1495 1497 1498 1505 1493 1495 1495 1500 1508 1503 1525 1514 1510 1509 1508 1507 1507 1509 1512 1514 1518 1521 1525 1527 1528 1530 1533 1534 1535 1536 1537 1538 1538 1538 1537 1537 1535 1534 1532 1530 1528
1492 1487 1490 1493 1489 1489 1492 1483 1486 1488 1494 1503 1505 1521 1519 1513 1514 1512 1511 1510 1511 1513 1515 1518 1521 1524 1526 1529 1531 1534 1536 1537 1537 1537 1537 1536 1536 1535 1534 1532 1531 1528 1526 1523
1482 1479 1481 1482 1479 1479 1479 1481 1484 1491 1502 1515 1505 1514 1516 1507 1502 1506 1510 1512 1513 1516 1518 1519 1522 1524 1526 1529 1532 1535 1537 1537 1537 1537 1536 1535 1534 1533 1531 1529 1526 1524 1521 1519
1484 1478 1473 1473 1478 1475 1477 1493 1512 1514 1523 1519 1500 1503 1504 1490 1491 1496 1502 1509 1512 1515 1517 1519 1521 1525 1527 1530 1533 1536 1537 1537 1537 1536 1535 1533 1532 1530 1528 1525 1523 1520 1518 1515
1491 1488 1471 1466 1471 1476 1476 1487 1510 1523 1526 1516 1501 1503 1497 1483 1489 1497 1502 1506 1510 1513 1515 1517 1521 1524 1527 1530 1533 1536 1536 1536 1536 1535 1533 1532 1530 1527 1525 1523 1520 1518 1515 1513
1481 1478 1460 1458 1457 1463 1472 1480 1479 1496 1506 1514 1509 1500 1497 1491 1494 1498 1501 1504 1507 1510 1513 1515 1520 1524 1527 1530 1533 1535 1536 1535 1535 1533 1532 1530 1527 1525 1522 1520 1517 1515 1513 1510
1466 1473 1460 1454 1454 1454 1459 1464 1485 1499 1513 1519 1509 1505 1501 1497 1495 1496 1498 1501 1504 1508 1512 1515 1519 1523 1527 1530 1533 1535 1535 1534 1533 1532 1530 1527 1524 1522 1519 1517 1515 1512 1510 1507
1461 1473 1468 1460 1460 1462 1459 1464 1473 1487 1492 1505 1516 1504 1476 1477 1480 1486 1492 1498 1502 1507 1511 1515 1519 1523 1527 1530 1533 1534 1533 1532 1531 1529 1527 1524 1522 1519 1517 1514 1512 1509 1507 1505
1464 1472 1477 1467 1455 1450 1453 1457 1465 1482 1487 1492 1500 1494 1462 1466 1474 1482 1489 1496 1501 1506 1511 1515 1519 1524 1527 1530 1532 1532 1531 1530 1528 1526 1524 1521 1519 1517 1514 1512 1509 1507 1505 1502
1466 1477 1488 1481 1471 1459 1458 1458 1460 1466 1477 1489 1496 1489 1466 1468 1477 1484 1489 1495 1501 1506 1511 1515 1519 1523 1526 1528 1529 1529 1528 1527 1525 1523 1521 1519 1517 1515 1512 1510 1507 1505 1503 1500
1466 1476 1485 1488 1480 1469 1467 1462 1461 1468 1480 1482 1480 1479 1478 1479 1483 1488 1493 1497 1502 1506 1510 1514 1518 1522 1525 1526 1526 1526 1526 1525 1523 1521 1520 1518 1516 1513 1511 1508 1506 1503 1500 1497
1473 1480 1476 1473 1467 1463 1462 1460 1460 1464 1468 1475 1473 1475 1478 1480 1485 1491 1495 1500 1505 1509 1511 1515 1519 1522 1523 1524 1524 1524 1523 1523 1522 1520 1519 1517 1514 1512 1509 1507 1504 1501 1498 1495
1480 1483 1480 1475 1465 1463 1461 1455 1456 1459 1461 1464 1467 1474 1471 1477 1486 1494 1498 1502 1506 1512 1514 1516 1519 1521 1522 1523 1523 1523 1522 1522 1521 1520 1518 1515 1513 1510 1508 1505 1502 1499 1496 1493
1483 1485 1487 1485 1472 1467 1469 1456 1454 1453 1452 1458 1465 1468 1470 1473 1478 1483 1490 1497 1503 1509 1513 1517 1519 1520 1521 1522 1522 1522 1523 1522 1521 1520 1517 1514 1512 1509 1507 1504 1501 1497 1494 1490
1480 1483 1488 1486 1477 1481 1465 1450 1447 1447 1446 1447 1451 1456 1461 1468 1478 1485 1489 1494 1501 1507 1512 1515 1517 1518 1520 1521 1522 1523 1523 1523 1521 1519 1516 1513 1510 1507 1505 1502 1498 1495 1491 1488
1473 1479 1485 1486 1483 1473 1458 1451 1451 1449 1448 1444 1448 1457 1467 1474 1482 1493 1495 1498 1502 1508 1512 1514 1516 1517 1519 1521 1522 1523 1523 1522 1520 1518 1514 1512 1508 1505 1502 1499 1496 1493 1489 1485
1473 1475 1481 1482 1482 1477 1459 1450 1447 1448 1453 1446 1447 1455 1462 1466 1481 1495 1497 1500 1505 1509 1511 1513 1515 1517 1519 1521 1523 1524 1523 1521 1519 1516 1513 1510 1506 1503 1499 1496 1493 1490 1487 1483
1483 1482 1483 1482 1481 1466 1451 1447 1446 1457 1454 1449 1451 1454 1460 1464 1473 1489 1496 1501 1505 1509 1511 1512 1514 1517 1520 1523 1524 1523 1522 1520 1517 1515 1512 1508 1504 1501 1497 1494 1490 1488 1484 1481
1488 1488 1483 1480 1477 1468 1449 1446 1447 1448 1446 1449 1457 1463 1465 1471 1481 1490 1497 1502 1505 1507 1509 1512 1517 1520 1523 1523 1523 1523 1520 1519 1516 1514 1510 1506 1503 1500 1496 1492 1489 1486 1483 1480
1486 1484 1481 1478 1469 1456 1451 1446 1443 1441 1444 1452 1459 1468 1471 1477 1485 1493 1498 1502 1505 1508 1512 1516 1520 1522 1523 1523 1523 1522 1520 1518 1515 1513 1509 1506 1503 1499 1495 1492 1488 1485 1481 1477
1481 1478 1478 1472 1459 1453 1449 1446 1445 1445 1448 1457 1464 1472 1476 1482 1490 1496 1500 1504 1507 1511 1515 1518 1521 1522 1523 1523 1522 1521 1520 1517 1514 1512 1509 1505 1502 1498 1495 1491 1488 1484 1480 1475
1478 1475 1473 1466 1459 1452 1449 1448 1449 1452 1458 1465 1471 1477 1482 1487 1493 1499 1503 1507 1510 1514 1517 1519 1521 1522 1523 1523 1522 1521 1520 1517 1514 1511 1508 1505 1502 1498 1495 1491 1488 1484 1480 1476
1473 1472 1470 1465 1460 1457 1457 1457 1456 1460 1467 1473 1479 1485 1490 1493 1497 1502 1506 1509 1513 1516 1518 1520 1522 1523 1524 1524 1523 1522 1520 1518 1515 1512 1509 1506 1502 1499 1495 1491 1488 1484 1481 1477